Date String (YYYY-MM-DD hh:mm:ss) UTC,Instrument flags,Ambient pressure (hPa),Sample flow (lpm),Bypass flow (lpm),Sample temperature (°C),Ambient temperature (°C),ASC tube jacket temperature (°C),LED temperature (°C),Box temperature (°C),Sample RH (%),Span deviation,Mass concentration (μg/m³),Mass concentration (μg/m³),Mass concentration (μg/m³)
DateTimeUTC,F1_M11,P_M11,Q1_M11,Q2_M11,T1_M11,T2_M11,T3_M11,T4_M11,T5_M11,U1_M11,ZSPAN_M11,X0_M11,X2_M11,X1_M11
2022-03-02 16:00:00,,0829.8,5.01,0.00,27.8,27.0,00.0,36.7,29.6,13.0,0000.0,0006.08,0002.26,0001.43
2022-03-02 16:01:00,,0829.9,5.00,0.00,27.8,27.0,00.0,36.7,29.6,13.0,0000.0,0005.75,0002.09,0001.34
2022-03-02 16:02:00,,0829.8,4.99,0.00,27.8,27.0,00.0,36.7,29.6,12.3,0000.0,0004.92,0001.96,0001.25
2022-03-02 16:03:00,,0829.8,5.00,0.00,27.8,27.1,00.0,36.7,29.7,12.3,0000.0,0004.21,0001.84,0001.15
2022-03-02 16:04:00,,0829.8,5.01,0.00,27.8,27.1,00.0,36.7,29.7,12.6,0000.0,0003.74,0001.74,0001.07
2022-03-02 16:05:00,,0829.8,5.00,0.00,27.8,27.1,00.0,36.8,29.7,12.2,0000.0,0003.54,0001.64,0000.99
2022-03-02 16:06:00,,0829.8,5.00,0.00,27.9,27.1,00.0,36.8,29.7,12.6,0000.0,0003.43,0001.58,0000.95
2022-03-02 16:07:00,,0829.8,5.00,0.00,27.9,27.1,00.0,36.8,29.7,12.9,0000.0,0003.46,0001.58,0000.94
2022-03-02 16:08:00,,0829.8,5.00,0.00,27.9,27.2,00.0,36.8,29.7,12.9,0000.0,0003.48,0001.59,0000.97
2022-03-02 16:09:00,,0829.9,5.00,0.00,27.9,27.2,00.0,36.8,29.7,12.9,0000.0,0003.24,0001.60,0001.03
2022-03-02 16:10:00,,0829.9,5.00,0.00,27.9,27.2,00.0,36.8,29.8,12.9,0000.0,0003.05,0001.62,0001.09
2022-03-02 16:11:00,,0829.9,5.00,0.00,27.9,27.2,00.0,36.8,29.8,12.0,0000.0,0003.01,0001.61,0001.12
2022-03-02 16:12:00,,0829.9,5.01,0.00,28.0,27.2,00.0,36.8,29.8,12.2,0000.0,0003.22,0001.70,0001.18
2022-03-02 16:13:00,,0829.9,4.98,0.00,28.0,27.2,00.0,36.8,29.8,12.3,0000.0,0003.35,0001.78,0001.26
2022-03-02 16:14:00,,0829.9,5.01,0.00,28.0,27.2,00.0,36.9,29.8,12.6,0000.0,0003.49,0001.87,0001.36
2022-03-02 16:15:00,,0829.9,5.00,0.00,28.0,27.3,00.0,36.9,29.9,13.0,0000.0,0003.68,0002.02,0001.47
2022-03-02 16:16:00,,0829.9,5.00,0.00,28.0,27.3,00.0,36.9,29.9,12.9,0000.0,0003.90,0002.23,0001.63
2022-03-02 16:17:00,,0830.0,5.01,0.00,28.0,27.3,00.0,36.9,29.9,12.4,0000.0,0003.80,0002.30,0001.73
2022-03-02 16:18:00,,0830.0,5.00,0.00,28.0,27.3,00.0,36.9,29.9,12.8,0000.0,0003.99,0002.41,0001.84
2022-03-02 16:19:00,,0829.9,4.99,0.00,28.1,27.3,00.0,36.9,29.9,12.6,0000.0,0004.68,0002.50,0001.93
2022-03-02 16:20:00,,0830.0,5.00,0.00,28.1,27.3,00.0,36.9,29.9,12.8,0000.0,0006.71,0002.61,0002.02
2022-03-02 16:21:00,,0830.0,5.00,0.00,28.1,27.4,00.0,36.9,29.9,13.0,0000.0,0007.45,0002.78,0002.12
2022-03-02 16:22:00,,0830.0,5.00,0.00,28.1,27.4,00.0,37.0,29.9,12.9,0000.0,0007.66,0003.06,0002.27
2022-03-02 16:23:00,,0830.0,5.01,0.00,28.1,27.4,00.0,37.0,30.0,13.0,0000.0,0007.99,0003.19,0002.43
2022-03-02 16:24:00,,0830.1,5.00,0.00,28.1,27.4,00.0,37.0,30.0,13.5,0000.0,0008.55,0003.33,0002.61
2022-03-02 16:25:00,,0830.0,5.00,0.00,28.2,27.4,00.0,37.0,30.0,13.0,0000.0,0008.66,0003.43,0002.77
2022-03-02 16:26:00,,0830.0,5.00,0.00,28.2,27.5,00.0,37.0,30.0,12.9,0000.0,0009.17,0003.51,0002.90
2022-03-02 16:27:00,,0830.1,5.01,0.00,28.2,27.5,00.0,37.0,30.0,13.0,0000.0,0009.48,0003.58,0003.00
2022-03-02 16:28:00,,0830.0,5.00,0.00,28.2,27.5,00.0,37.1,30.1,12.7,0000.0,0009.70,0003.69,0003.11
2022-03-02 16:29:00,,0830.1,5.00,0.00,28.2,27.5,00.0,37.1,30.1,12.8,0000.0,0009.73,0003.78,0003.20
2022-03-02 16:30:00,,0830.0,5.00,0.00,28.2,27.5,00.0,37.1,30.1,13.0,0000.0,0009.89,0003.90,0003.29
2022-03-02 16:31:00,,0830.1,4.99,0.00,28.3,27.5,00.0,37.1,30.1,13.0,0000.0,0009.24,0003.99,0003.37
2022-03-02 16:32:00,,0830.0,5.00,0.00,28.3,27.5,00.0,37.1,30.1,13.1,0000.0,0008.84,0004.05,0003.44
2022-03-02 16:33:00,,0830.1,5.00,0.00,28.3,27.5,00.0,37.2,30.1,13.2,0000.0,0008.92,0004.11,0003.53
2022-03-02 16:34:00,,0830.1,5.00,0.00,28.3,27.5,00.0,37.2,30.1,13.1,0000.0,0009.00,0004.22,0003.61
2022-03-02 16:35:00,,0830.1,5.00,0.00,28.3,27.5,00.0,37.2,30.1,13.2,0000.0,0009.04,0004.29,0003.69
2022-03-02 16:36:00,,0830.1,5.01,0.00,28.3,27.5,00.0,37.2,30.1,13.4,0000.0,0010.10,0004.41,0003.77
2022-03-02 16:37:00,,0830.1,5.00,0.00,28.3,27.6,00.0,37.2,30.1,13.4,0000.0,0010.63,0004.59,0003.88
2022-03-02 16:38:00,,0830.1,5.00,0.00,28.3,27.6,00.0,37.2,30.1,13.5,0000.0,0011.24,0004.70,0003.97
2022-03-02 16:39:00,,0830.1,4.99,0.00,28.4,27.6,00.0,37.2,30.2,13.6,0000.0,0011.34,0004.78,0004.06
2022-03-02 16:40:00,,0830.1,5.00,0.00,28.4,27.6,00.0,37.2,30.2,13.4,0000.0,0011.40,0004.85,0004.14
2022-03-02 16:41:00,,0830.1,5.00,0.00,28.4,27.6,00.0,37.3,30.2,13.5,0000.0,0011.24,0004.93,0004.21
2022-03-02 16:42:00,,0830.1,5.00,0.00,28.4,27.6,00.0,37.3,30.2,13.5,0000.0,0011.27,0005.02,0004.27
2022-03-02 16:43:00,,0830.1,5.00,0.00,28.4,27.6,00.0,37.3,30.2,13.5,0000.0,0011.68,0005.12,0004.33
2022-03-02 16:44:00,,0830.1,4.99,0.00,28.4,27.6,00.0,37.3,30.2,13.4,0000.0,0012.35,0005.21,0004.37
2022-03-02 16:45:00,,0830.1,4.99,0.00,28.4,27.6,00.0,37.3,30.2,13.4,0000.0,0012.47,0005.26,0004.42
2022-03-02 16:46:00,,0830.1,5.02,0.00,28.4,27.6,00.0,37.3,30.2,13.2,0000.0,0012.20,0005.26,0004.45
2022-03-02 16:47:00,,0830.0,4.99,0.00,28.4,27.6,00.0,37.3,30.2,13.1,0000.0,0011.43,0005.23,0004.46
2022-03-02 16:48:00,,0830.0,5.01,0.00,28.4,27.6,00.0,37.3,30.3,12.9,0000.0,0011.38,0005.21,0004.46
2022-03-02 16:49:00,,0830.0,5.00,0.00,28.5,27.6,00.0,37.4,30.2,13.1,0000.0,0010.37,0005.16,0004.45
2022-03-02 16:50:00,,0830.1,5.01,0.00,28.5,27.6,00.0,37.4,30.2,12.9,0000.0,0010.53,0005.12,0004.44
2022-03-02 16:51:00,,0830.1,5.01,0.00,28.5,27.7,00.0,37.4,30.2,12.9,0000.0,0011.30,0005.12,0004.43
2022-03-02 16:52:00,,0830.1,4.99,0.00,28.5,27.6,00.0,37.4,30.3,13.1,0000.0,0011.77,0005.11,0004.41
2022-03-02 16:53:00,,0830.1,4.99,0.00,28.5,27.7,00.0,37.4,30.2,13.1,0000.0,0012.06,0005.09,0004.41
2022-03-02 16:54:00,,0830.0,5.01,0.00,28.5,27.7,00.0,37.4,30.2,12.9,0000.0,0011.79,0005.09,0004.41
2022-03-02 16:55:00,,0830.0,5.00,0.00,28.5,27.7,00.0,37.4,30.3,13.1,0000.0,0011.23,0005.06,0004.41
2022-03-02 16:56:00,,0830.1,5.00,0.00,28.5,27.7,00.0,37.4,30.3,12.8,0000.0,0010.92,0005.04,0004.41
2022-03-02 16:57:00,,0830.1,5.01,0.00,28.5,27.7,00.0,37.4,30.3,12.6,0000.0,0010.91,0005.05,0004.42
2022-03-02 16:58:00,,0830.1,5.00,0.00,28.5,27.7,00.0,37.4,30.3,12.5,0000.0,0010.60,0005.08,0004.44
2022-03-02 16:59:00,,0830.2,5.00,0.00,28.5,27.7,00.0,37.4,30.3,12.5,0000.0,0010.62,0005.07,0004.46
